GFSSGP_925_temp_171.txt.gz
Temp
24 24 24 23 21 19 22 25 29 29 29 29 31 29 26 26 27 25 25 25 24 22 21 21 20 20 20 20 20 20 20 20 20 20 20 20 20 20 20 20 20 20 20 19 19 19 19 19 19
24 25 25 19 20 21 22 27 29 29 30 30 30 29 27 25 26 24 24 24 24 23 21 21 21 21 20 20 20 20 20 20 20 20 20 21 20 20 20 20 20 20 20 19 19 19 19 19 19
24 24 20 19 20 21 24 27 28 29 30 30 30 29 28 26 26 25 26 24 24 23 22 21 21 21 21 21 21 21 20 20 20 20 20 20 20 20 20 20 20 20 19 19 19 19 19 19 19
23 22 20 21 22 23 27 28 28 28 30 30 29 27 27 27 26 27 27 25 24 24 24 22 21 22 21 21 21 21 21 21 20 20 20 20 20 21 20 20 20 20 19 19 19 19 19 20 19
23 19 21 22 23 25 25 28 28 28 27 30 30 28 25 27 27 27 27 26 25 24 24 23 23 22 21 21 21 21 21 21 20 20 20 20 21 20 20 20 20 20 20 19 19 19 19 20 20
20 19 21 21 23 26 27 27 28 28 28 29 29 25 25 28 27 28 27 27 26 25 24 24 23 22 21 21 21 21 21 21 20 20 20 21 21 21 20 20 20 20 19 19 19 19 19 20 20
21 19 21 22 23 24 28 27 26 27 28 28 29 27 25 26 27 28 28 27 27 25 24 24 23 22 22 21 21 21 21 21 20 21 20 20 20 20 21 20 20 20 20 20 19 19 19 20 21
20 20 23 22 24 25 28 29 28 28 28 28 28 26 24 25 27 27 27 27 26 25 24 24 23 22 21 21 21 21 21 20 21 20 20 20 20 20 20 20 20 20 19 19 19 18 19 20 21
24 19 20 23 26 25 25 27 27 29 28 27 28 27 25 27 27 27 27 26 24 24 24 23 23 22 22 21 21 21 20 20 20 20 20 20 20 21 21 20 20 20 19 19 19 19 19 20 21
20 18 21 24 25 25 25 24 25 27 25 26 27 26 27 27 27 25 25 24 24 23 23 23 23 23 22 22 22 21 21 20 20 20 20 20 20 20 21 20 20 20 19 19 19 19 19 20 21
21 20 23 24 25 26 25 25 25 24 24 25 26 25 24 25 25 25 25 25 25 25 23 24 23 23 22 22 21 21 20 20 20 20 20 21 20 20 20 20 20 20 19 19 19 18 19 20 21
22 23 23 24 25 25 26 26 24 24 23 25 24 26 24 23 23 24 25 25 25 25 25 25 24 23 23 22 22 21 21 20 21 21 20 21 20 20 21 20 20 20 19 19 19 19 19 19 19
22 23 24 24 24 24 24 24 23 23 23 24 24 25 24 23 23 26 26 27 25 24 25 24 24 23 22 22 22 21 21 21 22 21 21 21 21 21 21 20 20 19 19 19 19 19 19 19 19
23 23 23 24 23 24 24 23 23 23 24 24 24 24 23 23 24 27 27 27 25 24 24 24 24 23 23 22 22 22 22 22 22 22 21 21 21 21 20 20 20 19 19 19 18 19 19 19 19
23 22 21 22 22 23 24 22 23 24 23 23 23 23 23 23 25 25 29 28 27 25 25 24 24 23 23 23 23 22 21 21 21 21 21 21 21 20 20 20 20 19 19 19 18 18 18 18 18
21 21 20 22 23 23 23 21 23 23 23 24 22 21 22 23 23 27 29 29 29 26 24 24 24 24 23 23 23 23 23 22 21 21 20 20 20 20 20 20 20 20 19 19 18 18 18 18 18
19 18 20 21 24 24 23 21 23 23 24 24 23 22 21 22 22 25 28 29 29 26 25 24 24 24 23 23 22 22 22 22 21 21 21 21 20 20 20 19 19 19 19 18 18 18 17 17 16
18 18 20 20 23 24 23 21 21 23 23 23 22 22 23 22 23 26 27 29 29 27 25 24 24 24 23 22 22 21 21 20 20 20 20 20 20 19 19 19 18 18 18 17 17 18 16 16 17
20 20 20 21 22 22 21 20 21 22 22 22 21 21 21 21 23 26 27 28 29 27 25 24 24 23 23 22 21 20 20 19 19 19 19 19 18 18 18 18 18 17 17 16 17 17 16 14 15
20 19 19 20 23 22 21 21 21 21 22 24 23 22 23 23 23 23 25 26 27 26 25 24 24 23 22 22 21 20 20 19 19 19 19 18 18 18 18 18 17 17 16 16 16 16 14 13 14
20 19 19 20 21 21 20 20 20 21 22 23 24 24 24 22 23 23 22 23 24 24 24 24 23 23 22 22 21 20 19 19 18 18 17 17 17 17 17 17 16 16 16 15 16 16 15 13 13
19 21 21 21 19 18 21 18 20 20 21 23 23 23 23 22 22 22 23 20 22 22 23 23 23 22 22 21 20 19 18 17 18 18 18 17 17 17 17 17 16 16 16 16 15 15 15 15 13
20 21 20 21 19 18 19 17 20 21 21 22 23 21 20 19 20 20 19 21 21 22 22 22 22 22 21 21 20 20 19 19 19 18 18 17 17 17 17 16 16 15 15 15 15 14 14 14 13
21 21 19 19 17 16 19 17 19 18 21 24 21 20 20 20 19 19 18 18 19 21 21 21 21 20 20 20 19 18 18 18 18 18 17 17 17 17 16 16 15 15 15 15 15 14 14 13 13
17 18 15 15 15 17 18 17 19 20 20 23 21 19 19 19 18 17 16 17 17 18 19 19 19 18 18 18 18 18 18 18 18 17 17 16 15 15 14 14 15 15 16 15 15 14 13 13 13
15 17 16 15 13 15 18 16 19 21 21 22 21 18 18 19 17 16 16 15 16 16 18 18 17 17 17 17 16 16 17 17 17 16 16 15 15 15 14 14 15 15 15 15 14 13 13 13 13
15 14 15 15 14 14 15 17 19 16 16 19 18 17 17 17 16 15 16 15 15 16 17 16 16 15 15 15 15 15 15 15 15 15 15 15 15 15 14 14 14 15 15 15 14 14 13 14 13
13 14 13 13 13 14 15 17 15 11 10 11 14 15 15 15 15 15 15 14 15 15 16 17 15 15 15 15 14 14 15 16 16 16 15 14 14 14 14 14 14 14 15 14 14 14 14 14 13
11 11 12 12 12 12 14 14 13 11 11 11 9 13 13 14 14 15 14 14 14 15 15 15 15 15 14 14 13 14 14 14 15 14 14 14 14 13 12 13 14 14 14 14 14 14 14 14 14
12 11 10 8 10 10 11 13 11 10 11 11 11 11 13 13 14 14 14 14 14 14 14 14 14 14 14 14 13 13 13 13 13 13 12 12 12 12 12 11 12 13 13 14 14 14 15 14 14

GFSSGP_925_temp_174.txt.gz
Temp
24 23 24 22 20 18 22 24 26 28 29 29 28 27 25 25 27 26 23 23 23 22 21 21 20 20 20 20 20 20 20 21 21 21 20 20 20 20 20 20 20 20 19 19 19 19 19 19 19
24 24 23 17 19 20 22 24 27 27 29 28 27 26 26 25 25 22 22 22 24 22 21 20 20 20 20 20 20 20 19 20 21 21 20 20 21 21 20 20 20 20 19 19 19 19 19 19 19
24 23 19 18 17 20 22 26 27 28 27 29 28 26 26 25 25 23 25 23 22 22 22 21 21 21 20 20 20 20 20 19 19 20 20 20 20 21 20 20 20 20 19 19 19 19 18 19 19
23 20 18 20 21 22 24 26 28 28 28 28 27 26 26 26 25 26 24 23 23 22 22 21 21 21 21 21 21 21 21 20 20 20 20 20 20 20 20 20 20 20 19 19 19 19 19 19 19
22 17 19 21 21 22 23 25 27 28 27 27 28 25 25 26 27 26 24 24 24 23 22 22 21 21 20 20 21 22 21 20 20 20 20 21 20 20 20 20 20 20 19 19 19 20 19 19 19
18 17 19 20 22 23 23 25 27 28 28 28 27 24 25 26 26 24 24 24 25 24 23 22 22 22 21 20 20 21 21 20 20 20 21 20 21 20 20 20 20 20 19 19 19 19 20 19 19
19 18 20 21 22 23 26 25 27 27 26 28 27 24 24 25 26 25 25 25 24 24 23 22 22 22 21 21 20 21 21 20 20 21 20 20 20 20 20 20 20 20 19 19 19 19 20 20 19
18 18 22 21 22 25 25 26 27 26 28 27 27 23 24 24 27 26 25 25 23 23 23 23 22 21 21 21 21 20 21 21 20 21 20 20 20 20 20 20 20 19 19 19 19 19 20 20 19
20 18 18 22 24 24 24 24 25 26 27 26 26 24 25 27 26 25 24 22 22 21 22 22 22 22 21 21 20 20 20 20 20 20 20 20 20 20 20 20 20 19 19 19 19 19 20 20 19
19 16 19 21 24 24 24 24 24 24 23 25 26 24 25 26 26 25 22 21 21 21 22 23 22 22 21 21 21 21 20 20 20 21 20 20 20 20 20 20 20 20 19 19 19 19 19 20 19
19 19 20 23 23 24 24 24 25 24 23 24 26 24 23 23 23 23 23 22 22 23 22 23 23 22 22 21 21 21 21 20 20 21 21 20 20 20 20 20 20 20 19 19 19 19 20 20 19
21 21 22 22 23 23 24 25 24 24 22 23 23 25 24 22 21 22 23 22 22 24 24 23 23 23 22 22 21 21 21 20 20 21 21 20 20 20 20 20 20 20 19 19 19 19 19 20 19
21 21 22 22 22 22 23 22 23 22 22 22 22 22 23 21 21 24 25 25 23 23 23 23 23 23 22 22 22 22 21 21 21 21 20 21 20 20 20 20 20 19 19 19 19 19 19 19 19
21 22 21 21 22 22 23 22 22 23 23 22 23 22 21 21 21 23 23 24 23 23 23 23 23 23 22 22 22 21 22 21 21 21 21 21 20 20 20 20 20 19 19 19 19 19 18 18 18
22 21 20 21 22 22 23 22 21 22 22 22 21 21 22 20 23 22 24 25 26 24 24 24 24 23 23 23 22 22 22 21 21 21 21 20 20 20 20 20 20 19 19 19 18 18 18 18 18
20 20 19 21 23 22 21 20 22 22 22 22 21 19 19 21 21 24 27 27 27 26 23 24 24 23 23 22 22 22 21 21 21 21 21 20 20 20 20 20 19 19 19 19 18 18 17 17 18
17 17 19 20 22 22 22 20 21 22 21 21 21 21 20 20 20 23 25 26 27 26 24 23 23 23 23 23 22 22 21 21 21 21 21 20 20 19 20 20 19 19 19 18 18 17 17 17 17
16 17 18 19 20 21 20 19 20 21 21 20 20 20 20 21 21 24 26 27 26 26 24 23 23 23 23 22 21 21 20 20 20 20 20 20 20 19 19 19 19 19 18 18 17 17 16 16 16
18 18 17 18 20 20 20 19 19 20 19 19 19 19 19 20 22 24 25 27 25 24 22 22 22 23 22 22 20 21 21 21 20 19 19 19 19 18 18 19 18 18 18 17 16 16 16 14 15
17 17 17 18 19 21 20 20 20 19 20 21 22 21 19 20 20 21 25 25 24 24 22 22 22 23 22 22 21 21 20 20 20 19 19 19 19 18 18 18 18 17 17 16 16 16 14 13 14
18 17 18 18 20 20 19 19 19 19 19 19 20 20 21 22 22 22 21 23 22 21 20 21 22 22 22 22 21 20 19 19 18 18 18 18 18 18 18 17 18 17 16 16 16 16 16 14 13
18 19 19 19 18 17 19 17 19 20 19 19 19 19 18 20 21 21 21 21 21 21 21 22 21 21 21 22 21 20 19 18 18 19 18 18 17 17 17 18 17 16 16 16 15 15 15 15 13
18 19 19 20 18 17 18 16 19 19 20 20 20 19 20 20 20 21 21 21 20 20 20 20 20 20 21 21 21 20 19 19 19 18 17 16 16 16 16 16 16 16 16 16 16 16 15 14 14
18 19 19 18 17 15 17 17 19 18 19 19 20 20 20 20 19 17 17 17 17 18 18 18 19 20 20 20 20 20 19 18 18 17 16 16 16 17 16 16 16 15 15 16 16 15 15 14 14
16 16 14 15 15 16 17 17 19 16 11 13 16 18 19 19 16 16 16 16 16 17 17 18 19 18 18 19 18 19 18 18 18 18 17 16 16 16 15 15 15 15 15 15 15 15 14 14 13
14 15 14 14 13 13 15 15 17 13 12 12 12 14 15 16 15 14 14 15 16 16 17 17 17 17 17 18 17 18 17 17 17 17 16 15 15 15 15 14 14 15 15 15 15 13 13 13 13
13 12 13 12 14 13 13 16 16 13 12 12 12 11 13 13 13 14 14 14 15 14 15 16 16 15 16 16 16 16 16 17 16 15 15 15 15 15 14 14 15 15 15 15 14 13 13 13 13
12 12 11 12 11 12 13 14 15 12 11 11 11 12 11 12 13 13 13 14 14 15 15 15 15 15 14 15 15 15 15 15 15 15 15 15 15 15 15 15 15 14 15 15 14 14 13 13 13
10 10 11 10 10 10 12 13 13 11 11 11 11 12 12 11 12 12 13 14 14 15 15 15 14 14 14 14 14 14 14 14 14 15 15 14 14 13 14 14 14 14 14 14 14 14 14 13 13
10 9 8 7 7 7 8 11 12 11 11 11 11 11 12 13 13 14 13 13 14 14 14 14 14 14 14 14 13 14 14 14 14 14 14 13 13 12 12 13 13 14 14 14 14 14 13 13 13

GFSSGP_925_temp_180.txt.gz
Temp
22 23 23 21 20 17 21 23 23 25 26 24 24 26 26 24 27 25 21 21 21 21 21 21 20 20 20 20 20 21 21 21 21 21 20 21 21 21 20 20 19 19 19 19 19 19 19 19 19
22 23 22 15 18 20 21 22 25 26 27 25 26 25 25 26 23 20 20 20 21 21 21 21 20 20 20 20 20 21 22 21 21 20 21 21 21 21 20 20 19 19 19 19 19 19 19 19 19
22 23 18 16 15 20 22 24 25 26 25 26 26 24 25 26 23 21 22 22 21 21 21 20 20 20 20 20 20 21 21 21 21 21 21 21 20 21 20 20 19 19 19 18 19 19 19 19 19
23 19 16 19 21 21 22 24 24 23 26 26 25 25 24 25 23 24 23 22 21 21 21 21 20 20 20 20 20 20 20 21 20 20 20 20 20 21 20 20 19 19 18 18 19 19 19 19 19
20 16 18 19 21 21 21 22 22 24 25 26 25 26 24 24 24 24 23 22 22 21 21 20 20 20 20 20 19 19 19 19 20 20 20 20 20 20 20 20 20 19 18 18 18 18 18 18 19
17 16 19 20 20 21 21 21 22 25 25 25 25 24 24 23 24 23 23 22 22 22 21 20 20 20 20 19 19 19 19 19 19 19 20 20 20 20 20 20 20 19 19 18 18 18 19 18 18
18 17 19 20 20 21 24 21 24 24 25 26 24 25 23 23 23 23 23 22 21 21 21 21 21 20 20 20 20 19 19 19 19 20 20 20 20 20 20 20 20 19 19 18 18 19 18 18 18
15 17 19 19 20 22 24 23 24 24 25 23 24 24 24 23 23 22 21 21 21 21 22 21 21 21 20 20 21 21 20 20 20 20 20 20 20 20 20 20 20 19 19 18 18 19 18 18 18
18 17 17 20 20 23 23 22 23 23 24 23 24 24 23 23 22 21 20 20 20 20 21 21 21 20 20 20 20 20 20 20 20 20 20 20 20 20 19 19 19 19 19 19 19 19 19 18 18
17 16 19 20 21 23 22 22 22 23 22 23 24 24 22 22 21 20 20 19 20 20 20 20 20 20 20 20 20 20 20 20 20 20 20 20 20 19 19 19 19 19 19 19 19 19 19 19 18
17 18 19 21 21 21 22 21 23 23 21 22 24 23 22 21 20 20 20 20 20 20 21 20 20 22 21 21 21 20 20 20 20 20 20 20 19 19 19 19 19 19 19 19 19 19 18 19 18
20 19 19 21 22 21 21 22 22 21 22 24 22 23 23 21 20 20 20 21 20 20 21 21 21 22 21 21 21 21 20 20 20 20 20 20 19 19 19 19 19 19 19 19 19 19 19 19 18
19 20 20 20 19 19 20 19 20 20 21 20 20 20 20 20 21 23 22 22 20 20 21 22 22 21 21 21 21 20 21 20 20 20 20 20 19 19 19 20 20 19 19 19 19 19 19 18 18
20 20 19 19 20 20 20 20 20 21 20 20 20 19 18 19 20 21 22 22 22 21 21 22 22 22 21 21 22 21 20 20 20 20 20 20 20 20 20 20 20 20 20 19 19 18 19 18 18
20 19 18 19 20 20 19 20 19 20 20 19 18 18 18 17 19 19 22 22 23 23 22 22 22 22 22 22 22 22 21 20 20 20 20 20 20 20 20 20 20 20 20 19 18 18 18 18 18
19 17 17 19 20 20 21 18 20 20 20 19 18 17 17 18 18 21 22 21 22 23 22 22 22 23 22 22 22 22 22 21 20 20 20 20 20 20 19 19 19 19 19 18 18 17 17 17 17
16 16 17 18 20 20 20 17 19 19 19 18 18 18 18 17 18 21 23 23 22 22 22 22 21 22 23 22 23 22 22 21 20 20 20 20 20 20 20 20 19 19 18 17 17 17 16 16 16
16 16 16 16 19 19 18 17 17 18 18 18 17 17 17 17 18 21 23 24 24 23 22 22 21 21 23 23 23 22 21 21 20 21 21 20 20 20 19 19 19 18 18 17 16 16 15 16 16
17 16 15 16 17 16 16 17 17 17 17 17 18 18 17 16 18 20 22 23 23 23 22 21 21 21 20 19 21 21 21 21 20 20 20 20 19 19 19 19 19 18 18 17 16 16 15 14 14
16 15 14 15 17 16 16 17 18 17 17 18 17 16 16 17 17 18 19 21 22 23 23 21 20 19 20 19 21 21 21 21 20 20 20 19 19 19 18 18 18 18 17 16 16 16 14 13 14
15 15 15 16 17 17 16 16 18 19 18 17 15 13 13 13 15 16 17 18 20 21 22 22 20 20 19 19 19 20 19 18 17 18 18 18 18 18 18 18 17 17 17 17 16 15 15 14 13
15 16 16 16 16 15 17 15 17 18 17 15 13 12 12 12 13 14 15 15 15 19 20 21 20 19 18 19 19 21 18 17 18 18 18 18 18 18 17 17 17 17 16 16 16 15 15 15 14
16 18 17 17 15 15 16 14 14 16 17 12 11 12 12 12 12 13 14 14 15 17 19 20 19 18 18 18 19 19 18 18 18 18 17 17 17 17 17 17 16 16 16 15 15 15 15 15 15
15 16 15 15 14 14 15 15 14 15 11 10 11 12 12 12 12 13 13 13 13 16 17 18 19 18 17 17 18 18 18 17 17 17 16 16 16 16 16 16 16 16 16 15 15 15 15 15 15
14 15 12 13 13 14 15 14 15 11 11 11 11 11 12 12 12 13 13 13 13 13 15 17 17 16 16 17 17 18 18 18 18 17 17 16 16 16 16 16 16 16 16 15 15 15 15 15 14
12 12 12 13 11 12 13 13 13 11 11 11 12 12 12 12 12 12 13 13 13 12 14 15 15 15 15 15 17 17 17 18 19 19 18 17 17 17 16 15 15 15 15 15 15 15 14 14 14
12 11 11 11 10 9 11 13 11 11 10 11 11 12 11 12 12 12 13 12 13 12 12 13 13 14 14 15 16 17 17 16 17 17 17 17 16 16 15 15 15 15 15 15 15 15 14 14 13
11 11 11 10 9 10 10 11 12 9 9 10 10 11 11 11 11 12 12 12 12 12 12 13 13 13 13 14 15 16 16 16 16 16 16 15 15 15 16 15 15 15 15 15 15 13 13 13 13
9 9 8 9 8 8 10 11 10 8 9 9 9 10 11 11 11 11 12 12 11 12 13 13 13 14 14 14 14 15 15 15 16 15 15 15 15 15 15 15 15 14 15 14 15 14 13 12 12
9 8 7 6 7 6 4 7 10 7 8 9 9 10 11 12 12 11 12 11 11 11 12 12 13 14 13 14 15 14 14 14 14 14 14 15 15 14 14 14 14 14 14 14 14 14 13 12 12

GFSSGP_925_temp_183.txt.gz
Temp
22 23 23 21 24 23 25 26 24 26 27 26 25 27 28 27 28 28 20 20 20 21 20 21 21 21 21 21 21 21 21 21 21 21 21 20 20 20 20 19 19 19 19 19 20 19 19 19 19
22 22 22 19 24 25 26 24 26 26 27 26 26 27 27 28 24 22 21 21 21 20 20 21 21 21 20 20 21 22 21 21 21 21 20 20 20 20 20 19 19 19 19 19 19 19 19 19 19
22 22 22 20 20 25 26 25 26 26 25 27 27 26 26 27 24 23 22 21 21 20 20 20 20 21 21 21 21 21 21 21 21 21 21 20 20 20 20 19 19 19 19 19 19 19 19 19 18
22 20 20 23 23 23 24 25 25 25 27 26 26 28 26 24 25 23 23 21 20 20 20 20 20 21 21 21 21 21 21 21 21 21 21 20 20 20 20 19 19 19 19 19 19 19 19 18 19
20 19 22 22 22 23 23 23 23 24 25 27 26 27 26 25 23 23 22 20 20 20 20 20 20 20 20 20 20 20 21 21 21 21 20 20 20 19 20 19 19 19 19 19 19 19 19 19 19
20 19 23 23 22 23 23 23 23 24 26 26 26 26 26 23 22 21 21 20 20 20 20 20 20 20 20 20 20 19 20 20 20 21 21 21 20 20 20 19 19 19 19 18 18 18 18 19 19
21 21 22 21 21 22 24 23 25 25 25 27 25 26 26 24 23 22 21 21 20 20 20 20 20 20 20 20 20 19 19 20 20 20 20 20 20 20 20 19 19 19 18 19 18 18 19 18 19
18 20 20 20 22 24 24 24 24 24 25 24 24 26 27 24 22 21 20 20 20 20 20 19 19 20 20 19 19 19 19 19 19 20 20 20 20 20 19 19 19 19 19 19 18 18 18 18 18
18 21 20 22 21 23 23 23 24 23 24 24 25 25 24 22 21 20 19 19 19 19 19 19 19 19 19 19 19 20 20 20 20 20 20 20 19 19 19 19 19 19 19 19 19 18 18 18 18
20 19 21 20 21 22 22 23 23 24 23 24 25 25 23 21 20 21 21 21 20 19 19 19 19 19 20 19 20 19 19 19 19 19 19 19 19 19 19 19 19 19 19 19 18 18 18 18 18
18 21 20 21 21 21 22 22 23 23 23 24 25 26 24 22 21 21 22 21 21 20 19 19 19 19 20 20 20 20 20 20 19 20 20 19 19 19 18 19 19 18 18 18 18 18 18 19 18
20 20 20 21 21 20 21 22 22 22 24 24 23 23 23 24 23 22 22 21 21 20 19 19 19 20 20 20 20 20 20 20 20 20 20 20 19 19 19 19 19 19 19 19 19 18 18 18 18
19 20 20 20 20 20 20 21 22 22 23 22 21 21 22 22 23 23 22 21 20 20 20 20 19 21 21 20 21 20 20 20 20 20 20 20 20 19 19 19 19 19 19 19 19 18 18 18 18
20 20 20 20 21 20 21 21 20 22 21 22 20 21 21 21 21 21 22 23 21 21 21 21 21 21 22 22 21 21 21 21 20 20 20 19 20 19 19 19 19 19 19 19 19 18 18 18 18
20 20 19 20 20 21 20 20 20 21 20 21 21 21 21 20 20 21 21 22 23 22 21 22 22 21 22 22 22 21 21 21 20 20 20 20 19 19 19 19 19 20 19 19 19 19 18 17 18
19 18 19 20 20 20 21 21 21 20 20 21 22 22 20 21 21 22 21 21 22 21 21 20 21 21 21 21 22 22 21 21 20 20 20 20 20 19 19 19 19 19 19 18 18 18 17 17 17
17 19 17 19 19 20 20 19 20 21 20 20 22 21 21 20 21 20 20 21 22 20 21 20 20 20 20 21 21 22 22 21 20 20 20 20 20 20 19 19 19 18 18 18 17 16 17 17 17
18 17 17 17 20 20 19 19 19 20 19 20 20 19 18 18 18 18 18 18 20 21 20 20 20 20 21 22 22 22 22 22 21 20 20 20 20 20 19 19 18 18 18 17 17 15 15 16 16
17 17 17 17 18 18 18 18 18 20 20 19 18 16 15 15 16 16 16 17 18 20 21 19 19 19 19 18 19 18 20 21 20 20 20 20 20 20 19 19 18 18 17 17 16 15 14 14 14
16 16 17 17 17 17 18 18 19 19 19 17 14 14 14 14 15 15 15 15 15 16 18 21 19 19 19 19 21 20 21 21 21 21 20 20 20 19 19 19 18 18 17 16 16 16 14 13 14
16 17 16 17 17 17 17 18 18 20 17 15 14 13 14 13 14 14 15 14 14 15 15 17 20 19 19 19 18 19 18 19 18 18 19 19 19 19 18 18 18 17 17 16 16 15 15 13 13
16 17 17 17 16 18 17 18 18 19 17 14 13 13 13 13 13 14 14 14 14 14 14 16 17 18 18 17 18 18 19 18 18 19 19 19 18 18 17 17 17 17 16 16 15 15 15 15 13
17 16 17 17 16 15 17 17 19 17 16 13 13 13 13 13 13 13 14 14 14 13 13 15 16 17 17 17 18 17 19 19 19 18 17 18 17 17 17 17 17 17 17 16 16 15 15 15 15
15 16 16 15 15 16 17 17 19 14 11 12 13 13 13 13 13 13 13 13 13 13 13 14 17 17 17 16 17 18 18 18 17 16 16 16 16 17 17 17 16 16 16 16 15 15 15 15 15
15 15 15 16 15 16 15 15 18 11 11 12 12 12 12 13 13 13 12 12 13 13 12 13 15 16 17 16 16 17 16 19 19 17 17 16 16 16 16 16 16 16 15 15 15 15 15 15 14
13 14 15 14 15 15 14 15 15 11 11 11 12 12 12 13 13 13 12 11 12 12 12 12 13 15 16 16 16 15 15 15 15 15 17 17 17 16 16 16 16 15 15 15 15 15 14 14 14
13 13 12 12 11 11 14 13 11 11 10 11 11 11 11 12 12 13 13 12 11 11 11 12 12 13 14 15 15 15 15 15 17 16 15 15 16 16 16 15 15 15 15 15 15 14 14 14 13
12 11 12 11 10 11 14 12 15 10 10 10 10 11 11 11 12 13 13 12 11 11 11 12 12 12 13 13 14 14 14 17 16 17 16 14 15 15 15 15 15 15 15 15 15 14 13 13 13
11 11 10 11 10 11 12 14 10 9 9 9 10 11 10 10 11 11 12 12 11 11 11 11 12 12 13 13 13 13 15 15 15 16 15 14 15 15 15 15 15 15 15 15 15 13 13 13 12
9 9 9 10 9 7 6 11 9 9 10 11 10 10 10 10 10 11 11 12 11 11 11 11 12 12 12 13 14 14 15 15 15 15 14 14 15 14 14 15 15 14 15 15 14 14 12 12 12

GFSSGP_925_temp_186.txt.gz
Temp
22 22 23 25 29 30 30 30 30 31 31 31 30 31 31 31 31 30 23 22 23 23 24 22 22 22 21 21 20 21 21 21 21 21 20 20 20 20 20 19 19 19 19 20 19 19 19 19 19
22 23 24 27 30 31 31 30 30 31 31 31 31 31 32 32 30 27 25 22 22 23 23 23 22 22 21 21 21 21 21 21 21 20 20 20 20 20 20 19 19 19 19 19 19 19 19 19 19
22 23 28 29 30 31 31 30 30 30 31 31 31 31 32 31 29 29 25 23 23 23 23 23 22 21 21 22 21 21 22 21 21 21 20 20 20 20 20 19 19 19 19 19 19 19 19 19 18
24 26 27 29 30 29 30 30 29 30 31 31 31 32 31 29 29 28 24 24 24 24 23 22 21 21 21 22 21 21 21 21 21 21 21 20 20 20 20 19 19 19 19 19 19 19 19 19 18
24 27 29 29 29 29 29 29 29 30 30 31 31 32 32 29 26 25 24 24 25 24 24 22 21 21 21 21 20 21 21 21 21 21 21 20 20 20 19 20 19 20 19 19 19 19 19 18 19
27 26 29 30 29 28 29 28 28 29 30 30 31 31 31 27 26 25 25 25 25 24 24 23 20 20 21 20 20 21 21 21 21 21 20 20 20 20 20 19 19 19 19 19 18 19 18 19 19
26 27 29 28 28 28 29 28 29 29 29 30 29 30 31 30 26 25 25 25 24 24 23 23 22 21 20 20 20 20 20 20 20 20 20 20 20 20 20 19 19 19 19 18 19 19 18 19 19
25 26 27 27 28 28 27 28 28 28 29 29 29 30 30 28 25 25 24 24 24 23 23 23 23 22 22 21 20 20 19 19 19 20 20 20 20 20 20 19 19 19 18 18 19 19 19 19 19
24 27 28 27 26 27 27 27 28 28 28 28 29 29 29 27 24 24 24 24 23 23 23 23 23 23 22 22 21 20 20 19 19 20 20 20 21 20 19 20 19 19 19 18 18 19 18 18 19
26 26 27 26 26 26 26 26 27 27 28 29 29 30 28 27 27 27 25 26 24 23 22 23 23 22 22 22 21 21 21 21 20 21 21 21 23 22 21 20 19 19 19 18 18 19 19 19 20
24 26 25 25 25 25 26 26 26 27 27 28 28 29 29 28 28 28 28 27 26 24 23 22 22 22 22 22 21 21 21 21 21 21 21 22 22 22 21 20 20 20 18 19 19 18 19 20 20
24 25 25 25 24 24 25 26 26 26 27 28 27 27 28 28 29 29 29 28 27 25 23 22 22 21 21 22 21 22 21 21 21 20 20 20 21 21 21 20 20 20 19 20 20 19 20 20 20
24 25 24 24 24 24 25 24 25 26 27 26 26 26 26 27 27 27 28 28 27 26 24 23 22 22 20 22 20 20 22 21 22 20 20 20 21 21 21 20 20 19 19 19 19 19 18 20 20
24 24 24 24 25 25 24 25 23 25 25 26 26 27 27 27 26 26 26 27 27 25 25 24 23 22 21 21 22 21 21 22 21 21 21 20 20 20 21 21 19 19 19 19 19 18 19 20 20
23 23 25 26 25 25 23 24 24 25 25 26 27 28 27 26 26 27 26 26 27 27 27 25 24 23 21 21 22 22 22 21 22 21 20 20 20 20 20 19 19 19 19 19 19 19 19 19 20
23 24 24 25 24 24 24 25 26 25 26 25 27 28 26 25 25 25 23 23 24 25 26 26 25 23 22 22 22 22 22 21 22 22 21 20 20 19 19 19 19 18 19 19 19 19 19 19 20
23 25 25 24 24 24 24 24 26 26 25 25 26 25 24 24 24 21 21 21 22 23 24 24 25 24 23 22 22 22 22 21 21 21 21 20 20 20 19 19 19 18 18 18 18 18 19 19 19
25 24 25 23 24 24 23 23 25 25 25 25 24 23 22 22 21 20 19 19 20 20 21 23 24 24 23 22 22 22 21 21 22 21 21 20 20 19 20 20 20 19 18 17 16 17 17 19 18
23 22 22 24 24 22 22 23 23 24 24 24 21 21 21 20 20 19 19 19 19 19 20 21 23 24 23 22 22 22 22 21 22 21 20 20 19 19 19 19 19 19 18 16 16 16 17 16 17
21 21 22 23 22 21 23 23 24 24 22 19 19 19 19 19 20 19 18 18 18 18 18 19 20 22 23 22 22 22 23 22 21 21 20 20 19 19 19 19 19 19 18 16 15 16 15 15 16
21 21 22 22 22 22 21 22 23 21 19 19 19 18 18 18 18 18 18 17 16 16 17 17 18 20 22 22 21 21 21 19 19 19 19 19 19 18 18 18 18 18 17 16 16 16 16 16 15
21 22 21 20 20 21 21 21 24 24 20 19 18 18 17 17 17 18 17 17 16 15 15 16 18 19 21 22 21 19 20 21 21 19 19 19 18 18 17 18 18 17 16 16 17 16 17 17 15
21 19 20 20 20 21 21 20 23 23 20 18 17 17 17 17 17 17 17 16 16 15 14 15 16 19 19 20 20 20 20 22 22 19 19 18 17 17 17 17 18 18 18 17 17 16 17 17 16
20 19 20 20 20 19 21 21 22 23 19 16 16 16 16 17 17 17 16 15 15 15 15 13 14 17 19 19 19 19 20 21 20 19 18 17 17 17 16 17 17 17 17 17 16 16 16 16 16
17 19 18 19 19 19 21 20 22 15 15 15 15 15 15 16 16 16 16 15 14 14 14 14 13 14 15 17 17 18 19 19 19 19 18 18 17 17 16 17 17 17 17 16 16 16 16 15 15
18 19 18 16 18 19 18 18 19 15 14 14 14 14 15 15 15 15 16 15 14 12 14 13 13 12 14 15 17 17 17 16 18 16 17 18 17 17 16 17 16 17 16 15 16 16 15 15 15
18 16 17 16 17 15 18 19 14 14 13 14 14 14 14 14 14 15 15 15 15 13 12 13 12 13 13 14 15 15 15 15 14 17 16 15 17 16 16 15 16 16 16 16 16 15 15 14 14
14 15 15 15 13 13 16 18 18 14 13 13 14 14 14 14 14 14 14 14 14 13 11 12 12 13 13 13 14 14 14 14 15 17 17 14 14 15 15 15 15 15 15 15 15 15 15 14 13
14 14 14 14 12 13 13 17 14 13 12 14 14 14 13 13 13 13 14 13 14 14 12 11 12 13 14 13 13 14 14 14 14 15 15 15 14 15 15 15 15 15 15 15 14 15 14 13 13
12 12 12 10 9 10 9 13 14 13 14 13 13 13 13 13 13 13 13 13 14 14 13 12 12 13 13 14 15 14 14 13 14 14 15 15 14 14 15 14 15 15 15 15 14 14 13 13 12

GFSSGP_925_temp_189.txt.gz
Temp
23 25 26 27 29 31 33 32 34 33 33 33 33 33 33 34 32 30 25 26 27 26 24 22 22 21 21 20 20 20 20 21 21 20 21 20 20 20 20 20 19 19 20 20 20 19 19 19 19
24 26 27 29 30 32 33 33 32 33 33 33 33 33 34 33 33 29 27 25 26 26 25 23 22 22 21 21 21 21 21 21 21 20 20 20 20 20 20 20 19 19 20 20 19 19 19 19 19
24 26 29 30 32 33 33 33 33 33 33 33 33 34 34 33 32 31 28 25 26 26 26 24 22 22 21 21 22 21 21 21 21 20 21 20 20 20 20 19 19 19 19 20 19 19 19 18 18
27 29 30 30 32 33 33 33 32 32 33 33 34 34 34 31 32 30 27 26 27 26 26 23 22 21 21 21 21 21 21 21 21 21 21 20 20 20 20 19 20 19 19 19 19 19 18 18 19
27 30 30 31 32 32 32 32 31 32 33 33 33 34 33 30 29 29 27 27 28 27 26 22 22 21 21 21 21 21 21 21 21 21 21 21 20 20 20 20 19 19 19 19 19 19 18 19 19
29 30 31 32 32 32 32 32 32 32 33 33 33 33 32 30 30 28 28 28 28 27 26 24 21 21 21 21 21 21 21 21 21 20 20 20 20 20 20 20 19 19 19 19 19 19 18 19 19
28 29 31 31 31 31 31 31 32 31 32 32 31 32 33 31 29 28 28 29 28 28 26 25 22 21 21 21 21 21 21 21 20 20 20 20 20 20 20 20 19 19 19 19 19 19 19 18 19
28 29 30 31 31 31 30 30 30 30 31 31 32 32 32 31 29 28 28 28 27 27 26 25 24 22 22 21 20 20 20 20 20 20 20 20 20 20 20 19 19 19 19 18 19 19 19 19 19
27 28 30 30 29 30 30 29 30 30 30 31 31 32 32 30 28 28 28 28 27 26 26 25 25 24 23 23 22 20 20 20 19 20 20 20 21 21 20 20 19 19 19 18 19 19 19 18 19
27 28 30 29 29 29 29 29 29 29 30 31 31 32 31 31 30 30 29 29 28 26 25 25 25 25 24 24 23 21 21 21 21 21 21 21 23 23 22 21 20 19 19 18 18 18 19 20 20
28 28 28 29 28 28 28 28 30 28 28 30 30 30 30 30 30 31 31 31 29 27 26 25 25 24 24 24 24 23 22 22 22 22 23 23 24 23 22 20 19 19 19 19 18 18 19 21 22
26 28 28 28 27 26 27 28 28 28 29 30 29 29 29 30 30 31 31 31 31 29 27 25 25 24 24 24 24 22 22 22 23 23 22 22 22 23 22 21 21 21 20 20 19 20 21 22 22
26 28 27 27 26 26 27 27 27 28 29 29 29 28 29 29 29 29 29 29 30 30 28 26 24 24 24 24 23 23 24 22 22 22 20 21 22 22 22 21 21 21 19 19 19 19 20 20 21
27 26 27 27 27 27 26 27 27 28 28 28 29 29 29 28 28 28 28 29 29 29 29 27 25 24 24 23 24 23 23 24 24 23 21 21 21 21 22 22 22 20 20 19 19 19 18 20 21
26 25 27 28 28 27 26 26 26 28 28 28 29 30 30 28 28 28 28 27 28 29 29 28 26 25 24 24 23 22 22 23 24 24 23 23 22 21 22 22 20 20 19 19 19 18 19 20 21
26 27 26 27 26 27 25 26 30 28 27 28 28 29 29 28 27 26 24 24 25 26 27 28 28 27 25 24 23 22 23 23 24 24 24 23 22 21 21 20 19 19 19 18 18 19 19 20 22
28 27 28 29 28 26 26 26 28 29 28 27 28 28 27 26 26 24 23 22 23 23 24 25 26 27 27 25 24 23 24 24 23 24 24 23 22 21 19 19 19 19 18 18 19 20 21 21 21
27 27 28 28 29 27 26 26 27 27 27 27 27 27 26 25 24 23 22 21 21 21 22 22 23 24 26 26 24 23 23 23 24 23 24 23 22 21 20 20 19 18 18 17 20 20 20 21 21
26 25 25 26 27 26 25 25 26 27 27 26 27 25 24 23 23 22 21 21 20 20 20 20 21 22 25 25 25 23 22 22 22 24 23 22 22 21 21 21 22 21 18 17 18 19 19 20 20
24 24 24 26 27 24 24 24 26 26 26 25 23 23 22 22 22 21 20 20 19 18 17 18 20 20 21 24 25 24 22 23 22 23 23 22 21 21 21 21 21 21 19 16 17 18 19 19 19
23 23 24 24 25 25 24 25 26 24 23 21 21 21 21 20 20 20 20 19 19 18 17 17 18 19 20 21 24 24 22 23 23 22 22 21 21 20 21 21 20 20 19 17 17 18 17 18 17
22 25 24 23 23 22 25 23 25 25 22 22 21 20 19 19 20 20 19 18 18 17 17 16 15 15 19 21 22 22 22 23 22 22 21 21 21 20 20 20 20 20 18 18 17 18 18 18 16
23 24 22 22 22 22 23 22 24 26 24 21 20 19 19 19 19 19 19 18 17 16 16 17 16 15 14 21 22 22 21 22 22 21 21 21 21 20 19 20 20 19 17 18 18 18 18 19 18
22 21 21 22 21 20 22 23 23 25 24 20 19 18 18 18 18 18 18 17 17 16 15 16 16 15 15 16 21 22 21 21 21 21 20 20 20 19 19 19 19 19 19 18 18 18 18 18 18
21 19 18 19 20 21 23 22 24 19 18 18 17 17 17 17 17 17 17 17 17 17 15 15 16 16 15 15 16 20 20 21 21 21 20 19 18 18 18 18 19 18 18 18 17 17 17 17 16
20 20 19 16 18 20 22 18 20 17 16 16 16 16 17 16 16 16 16 16 16 16 16 14 15 16 15 14 14 16 18 19 19 20 20 19 18 18 18 18 18 18 18 17 17 17 17 16 15
19 19 20 17 18 18 19 20 17 16 16 16 16 16 16 16 16 16 16 16 16 16 16 14 13 15 15 14 13 15 17 17 18 17 18 16 17 14 18 18 18 18 17 17 17 17 16 15 15
16 18 16 17 13 14 18 19 15 14 15 16 16 16 15 15 15 15 15 15 15 15 15 15 14 13 14 14 13 14 15 16 15 16 17 18 19 14 17 17 17 17 16 16 16 16 16 15 14
17 16 16 16 15 13 14 17 14 14 15 15 15 15 15 14 14 14 15 14 14 15 15 15 14 13 14 15 14 14 15 14 14 14 15 15 17 17 15 16 16 16 16 15 16 16 15 15 14
14 14 14 11 12 12 12 14 15 15 15 14 15 14 14 14 14 14 14 14 14 15 15 16 15 13 13 14 14 14 14 14 14 14 16 16 16 16 15 15 15 15 15 15 15 14 14 14 13